Meteo orario Kozjaty

Oggi, 2 Marzo, Martedi

Tempo Temperatura Precipitazioni Vento Pressione Umidità
00:00 +1°C° 0 mm 3 m/s 766 mm Hg 93%
01:00 0°C° 0 mm 3 m/s 766 mm Hg 94%
02:00 0°C° 0 mm 3 m/s 766 mm Hg 94%
03:00 0°C° 0 mm 3 m/s 765 mm Hg 94%
04:00 -1°C° 0 mm 4 m/s 765 mm Hg 94%
05:00 -1°C° 0 mm 4 m/s 765 mm Hg 94%
06:00 -1°C° 0 mm 4 m/s 765 mm Hg 94%
07:00 -1°C° 0 mm 4 m/s 765 mm Hg 95%
08:00 0°C° 0 mm 4 m/s 765 mm Hg 90%
09:00 +3°C° 0 mm 4 m/s 765 mm Hg 84%
10:00 +4°C° 0 mm 4 m/s 765 mm Hg 78%
11:00 +5°C° 0 mm 4 m/s 765 mm Hg 73%
12:00 +7°C° 0 mm 4 m/s 765 mm Hg 68%
13:00 +8°C° 0 mm 4 m/s 765 mm Hg 64%
14:00 +8°C° 0 mm 4 m/s 765 mm Hg 64%
15:00 +8°C° 0 mm 4 m/s 765 mm Hg 65%
16:00 +9°C° 0 mm 3 m/s 764 mm Hg 66%
17:00 +8°C° 0 mm 3 m/s 764 mm Hg 71%
18:00 +5°C° 0 mm 3 m/s 765 mm Hg 76%
19:00 +5°C° 0 mm 2 m/s 765 mm Hg 82%
20:00 +4°C° 0 mm 2 m/s 765 mm Hg 83%
21:00 +4°C° 0 mm 2 m/s 765 mm Hg 85%
22:00 +4°C° 0 mm 1 m/s 765 mm Hg 86%
23:00 +4°C° 0 mm 1 m/s 765 mm Hg 86%

Domani, 3 Marzo, Mercoledi

Tempo Temperatura Precipitazioni Vento Pressione Umidità
00:00 +2°C° 0 mm 0 m/s 765 mm Hg 87%
01:00 +2°C° 0 mm 0 m/s 765 mm Hg 87%
02:00 +2°C° 0 mm 0 m/s 765 mm Hg 87%
03:00 +3°C° 0 mm 1 m/s 764 mm Hg 87%
04:00 +3°C° 0 mm 1 m/s 764 mm Hg 87%
05:00 +2°C° 0 mm 1 m/s 764 mm Hg 88%
06:00 +2°C° 0 mm 1 m/s 763 mm Hg 88%
07:00 +2°C° 0 mm 1 m/s 763 mm Hg 88%
08:00 +4°C° 0 mm 1 m/s 763 mm Hg 81%
09:00 +5°C° 0 mm 2 m/s 763 mm Hg 74%
10:00 +6°C° 0 mm 2 m/s 762 mm Hg 66%
11:00 +8°C° 0 mm 2 m/s 762 mm Hg 62%
12:00 +9°C° 0 mm 2 m/s 761 mm Hg 57%
13:00 +10°C° 0 mm 2 m/s 761 mm Hg 53%
14:00 +10°C° 0 mm 2 m/s 760 mm Hg 56%
15:00 +10°C° 0 mm 2 m/s 759 mm Hg 59%
16:00 +10°C° 0 mm 2 m/s 758 mm Hg 61%
17:00 +9°C° 0 mm 3 m/s 758 mm Hg 67%
18:00 +7°C° 0 mm 3 m/s 758 mm Hg 72%
19:00 +5°C° 0 mm 3 m/s 757 mm Hg 77%
20:00 +5°C° 0 mm 3 m/s 757 mm Hg 78%
21:00 +4°C° 0 mm 4 m/s 756 mm Hg 80%
22:00 +4°C° 0 mm 4 m/s 755 mm Hg 81%
23:00 +4°C° 0 mm 4 m/s 755 mm Hg 83%

Dopodomani, 4 Marzo, Giovedi

Tempo Temperatura Precipitazioni Vento Pressione Umidità
00:00 +4°C° 0 mm 4 m/s 754 mm Hg 86%
01:00 +3°C° 0 mm 4 m/s 754 mm Hg 88%
02:00 +4°C° 0 mm 4 m/s 753 mm Hg 89%
03:00 +3°C° 0 mm 5 m/s 752 mm Hg 90%
04:00 +3°C° 0 mm 5 m/s 752 mm Hg 91%
05:00 +3°C° 0 mm 5 m/s 752 mm Hg 92%
06:00 +2°C° 0 mm 5 m/s 751 mm Hg 93%
07:00 +2°C° 0 mm 5 m/s 751 mm Hg 94%
08:00 +3°C° 0 mm 6 m/s 751 mm Hg 89%
09:00 +3°C° 0 mm 6 m/s 751 mm Hg 85%
10:00 +3°C° 0 mm 6 m/s 750 mm Hg 80%
11:00 +3°C° 0 mm 6 m/s 750 mm Hg 79%
12:00 +3°C° 0 mm 6 m/s 750 mm Hg 77%
13:00 +3°C° 0 mm 6 m/s 750 mm Hg 76%
14:00 +2°C° 0 mm 6 m/s 750 mm Hg 76%
15:00 +2°C° 0 mm 5 m/s 750 mm Hg 76%
16:00 +1°C° 0 mm 5 m/s 750 mm Hg 76%
17:00 +1°C° 0 mm 4 m/s 750 mm Hg 81%
18:00 0°C° 0 mm 4 m/s 750 mm Hg 85%
19:00 0°C° 0 mm 4 m/s 751 mm Hg 90%
20:00 -1°C° 0.1 mm 4 m/s 751 mm Hg 88%
21:00 -1°C° 0.1 mm 4 m/s 751 mm Hg 86%
22:00 -2°C° 0.1 mm 4 m/s 751 mm Hg 84%
23:00 -2°C° 0 mm 4 m/s 752 mm Hg 84%

5 Marzo, Venerdi

Tempo Temperatura Precipitazioni Vento Pressione Umidità
00:00 -2°C° 0 mm 4 m/s 752 mm Hg 83%
01:00 -3°C° 0 mm 4 m/s 753 mm Hg 82%
02:00 -3°C° 0 mm 4 m/s 753 mm Hg 83%
03:00 -4°C° 0 mm 4 m/s 753 mm Hg 84%
04:00 -4°C° 0 mm 3 m/s 753 mm Hg 86%
05:00 -4°C° 0 mm 3 m/s 754 mm Hg 84%
06:00 -4°C° 0 mm 3 m/s 754 mm Hg 83%
07:00 -4°C° 0 mm 3 m/s 754 mm Hg 81%
08:00 -2°C° 0 mm 3 m/s 755 mm Hg 72%
09:00 -1°C° 0 mm 4 m/s 755 mm Hg 63%
10:00 0°C° 0 mm 4 m/s 755 mm Hg 53%
11:00 +1°C° 0 mm 4 m/s 756 mm Hg 50%
12:00 +1°C° 0 mm 4 m/s 756 mm Hg 46%
13:00 +3°C° 0 mm 4 m/s 756 mm Hg 43%
14:00 +1°C° 0.1 mm 4 m/s 756 mm Hg 44%
15:00 +1°C° 0.1 mm 4 m/s 756 mm Hg 45%
16:00 +2°C° 0.1 mm 3 m/s 756 mm Hg 46%
17:00 +1°C° 0.1 mm 3 m/s 757 mm Hg 52%
18:00 0°C° 0.1 mm 3 m/s 757 mm Hg 59%
19:00 -1°C° 0.1 mm 3 m/s 758 mm Hg 66%
20:00 -2°C° 0 mm 3 m/s 758 mm Hg 69%
21:00 -2°C° 0 mm 3 m/s 759 mm Hg 73%
22:00 -4°C° 0 mm 3 m/s 760 mm Hg 76%
23:00 -4°C° 0 mm 4 m/s 760 mm Hg 76%

6 Marzo, Sabato

Tempo Temperatura Precipitazioni Vento Pressione Umidità
00:00 -4°C° 0 mm 4 m/s 760 mm Hg 75%
01:00 -4°C° 0 mm 4 m/s 761 mm Hg 75%
02:00 -4°C° 0 mm 4 m/s 761 mm Hg 72%
03:00 -4°C° 0 mm 3 m/s 761 mm Hg 70%
04:00 -4°C° 0 mm 3 m/s 761 mm Hg 68%
05:00 -4°C° 0 mm 3 m/s 762 mm Hg 68%
06:00 -4°C° 0 mm 3 m/s 762 mm Hg 68%
07:00 -3°C° 0 mm 2 m/s 762 mm Hg 67%
08:00 -2°C° 0 mm 3 m/s 763 mm Hg 61%
09:00 -1°C° 0 mm 3 m/s 763 mm Hg 55%
10:00 0°C° 0 mm 4 m/s 763 mm Hg 48%
11:00 0°C° 0 mm 4 m/s 763 mm Hg 46%
12:00 +1°C° 0 mm 5 m/s 762 mm Hg 44%
13:00 +1°C° 0 mm 5 m/s 762 mm Hg 42%
14:00 +1°C° 0 mm 5 m/s 762 mm Hg 42%
15:00 +1°C° 0 mm 5 m/s 761 mm Hg 42%
16:00 +1°C° 0 mm 5 m/s 761 mm Hg 42%
17:00 0°C° 0 mm 5 m/s 761 mm Hg 46%
18:00 -1°C° 0 mm 5 m/s 760 mm Hg 49%
19:00 -2°C° 0 mm 5 m/s 760 mm Hg 52%
20:00 -3°C° 0 mm 6 m/s 760 mm Hg 52%
21:00 -3°C° 0 mm 6 m/s 759 mm Hg 52%
22:00 -3°C° 0 mm 7 m/s 759 mm Hg 51%
23:00 -3°C° 0 mm 7 m/s 758 mm Hg 55%

7 Marzo, Domenica

Tempo Temperatura Precipitazioni Vento Pressione Umidità
00:00 -3°C° 0 mm 7 m/s 758 mm Hg 58%
01:00 -3°C° 0 mm 7 m/s 757 mm Hg 61%
02:00 -3°C° 0 mm 7 m/s 757 mm Hg 65%
03:00 -4°C° 0 mm 8 m/s 756 mm Hg 69%
04:00 -4°C° 0 mm 8 m/s 756 mm Hg 72%
05:00 -4°C° 0 mm 8 m/s 755 mm Hg 75%
06:00 -4°C° 0 mm 8 m/s 755 mm Hg 78%
07:00 -4°C° 0 mm 8 m/s 755 mm Hg 80%
08:00 -2°C° 0 mm 8 m/s 755 mm Hg 78%
09:00 -2°C° 0 mm 8 m/s 755 mm Hg 76%
10:00 -1°C° 0 mm 9 m/s 754 mm Hg 74%
11:00 -1°C° 0 mm 9 m/s 754 mm Hg 73%
12:00 -1°C° 0 mm 9 m/s 754 mm Hg 72%
13:00 -1°C° 0 mm 9 m/s 753 mm Hg 70%
14:00 -1°C° 0 mm 9 m/s 753 mm Hg 71%
15:00 -1°C° 0 mm 8 m/s 753 mm Hg 72%
16:00 -1°C° 0 mm 8 m/s 752 mm Hg 73%
17:00 -2°C° 0.3 mm 7 m/s 753 mm Hg 79%
18:00 -3°C° 0.3 mm 7 m/s 753 mm Hg 84%
19:00 -3°C° 0.3 mm 6 m/s 753 mm Hg 90%
20:00 -4°C° 0.3 mm 5 m/s 754 mm Hg 86%
21:00 -4°C° 0.3 mm 3 m/s 754 mm Hg 82%
22:00 -4°C° 0.3 mm 2 m/s 755 mm Hg 78%
23:00 -4°C° 0 mm 2 m/s 755 mm Hg 77%
Mostrare altro